Wind_Speed
77 71 61 57 54 49 43 39 37 35 36 38 40 42 43 44 45 47 50 52 55 57 58 60 63 66 69 73 76 79 81 82 83 84 84 87 87 85 84 84 84 81 80 78 77 75 72 72 72 71 71 70 68 66 65 65 64 63 62 62 62 63 62 62 63 63 62 60 59 59 58 58 57 56 56 57 57 56 56 56 57 57 58 58 58 58 59 60
79 74 65 60 57 52 46 41 37 34 33 34 35 37 40 41 42 43 46 49 53 56 56 58 60 62 64 68 73 76 79 81 82 82 83 84 83 81 82 83 83 81 79 77 76 75 74 73 72 72 71 69 66 64 63 62 62 61 61 62 61 61 62 62 61 61 60 58 57 57 56 55 54 54 55 55 55 54 54 54 55 55 56 57 57 58 59 60
81 76 67 63 60 55 48 42 37 33 31 31 31 33 36 39 40 40 43 47 51 54 55 56 57 58 60 64 68 72 76 79 81 82 81 82 81 80 81 82 82 80 78 76 75 75 75 75 74 72 70 66 64 62 61 61 60 61 61 60 60 60 60 60 59 58 57 56 55 55 53 52 52 53 53 53 53 53 53 53 54 55 55 56 57 58 59 60
83 78 69 65 63 57 48 41 35 30 28 27 27 28 32 35 37 38 41 45 49 53 54 55 55 56 57 59 63 68 73 76 80 81 78 80 82 80 80 80 81 79 77 76 74 74 75 75 74 73 69 65 63 62 60 60 61 60 60 59 58 59 59 58 57 55 55 54 53 52 51 51 52 53 52 52 52 52 52 53 54 54 55 57 58 59 60 61
85 81 72 68 65 58 47 38 32 28 25 23 22 23 27 31 34 36 39 43 47 51 52 53 54 54 54 55 58 64 70 74 76 75 75 79 81 79 78 79 79 78 76 75 74 74 74 73 73 72 69 66 64 62 61 61 61 60 59 59 58 58 57 56 55 54 53 52 51 50 50 52 52 52 51 51 52 52 52 53 54 55 56 58 59 59 60 60
87 83 75 70 68 59 47 38 31 27 22 19 18 19 22 26 30 33 37 41 46 49 51 52 52 53 52 52 54 59 66 70 70 71 73 77 79 78 77 76 76 76 75 75 74 73 72 72 72 72 70 67 65 64 63 63 61 61 60 59 58 58 56 55 54 53 53 51 50 50 51 52 52 52 52 52 52 52 53 54 55 56 58 58 59 59 58 58
88 86 78 73 70 60 47 38 32 27 21 16 13 14 17 21 26 31 35 39 44 47 49 50 51 51 50 50 51 55 61 64 66 69 71 72 74 76 75 73 72 74 74 73 73 72 72 71 71 71 71 69 68 66 65 63 62 61 60 59 58 57 56 55 54 53 52 51 50 51 52 52 53 53 53 53 53 54 54 55 56 57 58 58 58 57 56 56
89 88 81 76 72 61 49 39 33 27 20 13 10 10 13 18 23 28 33 37 41 45 47 48 49 49 49 48 48 50 55 60 64 67 68 70 72 75 74 71 70 71 72 71 71 72 71 69 69 69 71 72 70 68 66 64 62 61 59 58 57 56 56 55 55 54 52 51 51 52 53 53 54 54 54 54 55 55 55 56 57 58 58 57 56 55 54 53
88 88 84 80 74 62 50 40 32 26 19 11 6 6 10 15 21 26 30 34 38 42 44 46 47 47 47 46 46 46 49 56 62 64 66 69 71 73 73 70 68 69 70 70 69 69 67 64 65 67 70 73 71 68 67 64 63 61 59 58 57 57 57 56 55 54 53 53 53 53 54 54 55 55 55 56 56 56 56 57 57 57 56 55 53 52 50 49
86 86 85 81 74 62 51 40 31 25 18 10 3 3 8 13 19 24 28 32 36 40 43 44 45 46 46 45 43 42 46 52 59 62 64 67 70 71 71 68 66 67 69 68 63 63 61 57 61 67 71 74 71 67 66 64 62 61 60 59 58 58 57 56 55 54 54 54 54 54 54 55 55 56 56 56 56 56 56 56 55 54 53 51 50 48 46 45
84 84 83 80 73 61 49 39 31 25 18 10 4 4 7 12 18 22 27 30 34 38 41 43 44 44 44 42 39 38 41 48 55 60 62 66 69 69 68 67 66 66 68 67 62 60 59 55 58 65 70 72 69 66 64 63 61 61 60 59 59 58 57 57 56 55 55 55 55 55 55 55 56 56 56 56 56 55 54 53 52 51 50 48 46 44 42 40
82 81 80 77 70 59 47 37 30 25 20 14 9 7 9 12 17 21 24 28 32 36 39 40 41 41 40 38 36 36 39 45 53 59 62 64 66 67 67 67 67 68 68 69 67 63 62 61 60 63 67 69 67 64 63 61 61 60 60 59 59 59 58 57 56 55 55 55 55 55 55 55 55 55 55 55 54 52 51 50 48 47 46 45 42 40 38 36
80 78 77 73 65 55 45 36 30 26 23 17 13 11 12 14 17 21 23 27 30 33 36 37 38 38 37 36 36 36 38 44 51 57 61 62 64 66 67 67 66 67 67 67 67 66 66 66 65 64 66 66 65 64 63 61 60 60 59 59 58 58 57 56 55 55 55 55 55 54 54 54 54 54 53 52 50 49 47 46 45 44 42 40 38 36 35 33
78 76 75 70 62 51 42 35 30 27 25 20 16 13 14 16 19 22 25 28 30 33 35 36 37 37 37 36 36 36 38 43 50 56 60 63 65 65 65 64 62 62 63 64 66 67 68 67 65 65 64 64 63 63 62 61 60 59 58 58 57 57 56 55 55 54 54 54 54 53 53 52 52 51 50 49 47 46 44 43 41 40 38 36 35 34 33 30
76 74 73 70 61 49 39 35 31 28 26 22 18 16 15 17 19 22 25 28 31 33 34 35 36 36 36 36 36 36 38 44 50 56 60 63 64 63 62 62 59 58 59 61 64 65 63 64 64 64 63 62 62 61 61 60 60 59 58 57 57 56 55 54 54 53 53 53 53 52 51 50 49 48 47 45 44 42 41 39 37 35 34 33 32 31 29 26
74 72 70 68 61 50 40 35 32 29 27 24 21 18 18 18 20 22 24 27 29 31 32 33 34 35 35 35 35 35 38 45 51 57 60 62 63 62 59 58 56 55 56 57 58 58 57 59 61 62 62 61 61 60 59 59 59 58 57 56 56 55 54 53 52 51 51 51 50 49 47 46 45 44 43 42 40 38 36 35 33 32 31 30 29 28 25 23
72 69 68 65 59 52 44 38 33 31 27 25 23 21 20 20 21 23 25 27 28 30 31 32 33 34 34 34 34 35 39 45 51 55 57 59 61 59 55 52 50 47 50 53 52 53 55 56 57 58 58 58 57 57 56 56 56 55 54 54 53 52 51 50 49 48 47 46 45 44 43 42 41 40 39 39 37 34 32 31 30 29 28 27 26 24 21 20
70 67 66 63 57 48 42 38 34 30 27 25 24 23 22 23 24 25 26 28 30 30 30 31 32 33 32 32 34 36 40 45 49 51 54 55 57 57 53 48 46 43 43 47 49 51 52 52 53 53 54 54 53 52 52 52 52 52 51 50 50 49 48 47 46 44 43 42 41 40 40 39 39 38 37 35 33 30 29 28 27 27 25 23 21 19 18 18
67 64 63 61 55 45 36 34 31 27 25 25 24 24 23 23 26 27 27 28 30 31 30 30 30 31 30 29 31 34 39 44 48 50 52 53 53 54 51 45 44 44 39 39 43 44 45 47 47 48 48 49 48 48 48 48 49 48 48 47 46 45 45 43 42 41 40 39 38 37 37 37 36 35 33 31 29 27 26 25 24 23 21 18 17 16 16 16
64 61 59 58 53 45 37 33 30 24 23 24 24 24 23 23 24 28 28 27 29 30 30 29 28 29 29 29 30 32 36 41 46 48 49 51 51 51 50 45 41 39 35 34 37 37 39 42 42 43 43 43 44 44 44 45 45 44 43 42 41 40 39 39 37 37 36 36 35 34 33 33 32 31 29 28 26 25 23 23 22 21 18 16 15 15 15 15
61 58 56 55 51 44 37 33 31 26 22 24 25 24 23 23 22 23 26 27 29 31 32 31 29 29 30 31 32 34 37 40 43 45 46 47 48 48 48 45 38 35 33 33 36 37 38 39 38 38 38 39 39 40 40 40 39 38 37 37 36 36 35 34 34 34 34 33 33 32 31 30 29 28 26 25 24 23 21 21 20 18 16 14 14 14 14 13
58 54 52 51 49 44 37 32 30 26 23 24 25 23 23 23 21 20 22 26 30 32 33 33 32 32 33 35 36 37 40 42 44 44 45 44 44 43 42 39 36 35 35 34 36 37 35 34 32 31 31 33 33 34 35 34 32 32 31 32 32 32 32 32 32 32 32 32 31 30 29 28 27 25 24 23 22 21 21 20 18 16 14 13 13 13 13 12
54 51 49 48 46 42 36 32 29 25 22 23 23 23 23 23 23 23 24 27 30 32 33 34 35 36 38 39 40 41 42 43 43 42 41 40 38 38 36 36 37 37 36 35 36 34 31 29 27 25 25 26 27 28 29 27 27 28 28 29 29 30 30 30 30 30 29 29 28 28 27 26 25 23 22 22 21 20 19 18 16 14 13 12 11 12 12 12
52 47 46 45 43 39 34 30 28 24 22 22 23 24 24 25 25 27 28 30 32 34 36 37 39 41 42 43 43 43 41 40 39 37 37 36 34 34 34 35 36 36 35 34 34 31 27 25 23 23 23 24 25 26 25 25 26 27 27 27 28 28 28 28 28 27 26 26 26 25 24 23 22 22 21 21 20 19 18 16 14 12 12 11 11 11 11 12
50 45 42 41 39 37 32 28 26 24 22 22 23 24 26 27 27 29 32 34 36 39 42 44 46 47 48 48 47 44 41 40 38 36 37 35 34 35 33 33 34 34 33 30 28 26 24 24 25 26 25 26 27 26 25 26 26 26 26 27 27 27 27 26 25 25 24 24 24 23 22 21 21 21 20 20 19 17 16 14 12 11 10 10 11 11 11 12
48 43 39 37 36 33 29 26 25 23 21 19 21 24 28 29 30 31 34 38 42 46 50 52 53 54 52 50 47 45 41 41 42 40 39 37 37 37 33 33 34 33 30 26 24 24 24 26 28 28 27 27 27 25 25 25 25 25 26 26 26 26 25 24 23 24 24 23 22 21 20 20 20 20 19 19 18 16 14 12 11 10 10 10 11 11 11 12
45 41 36 34 32 29 26 23 22 22 19 17 18 22 28 30 30 32 37 42 46 52 56 57 56 54 53 50 46 43 41 41 41 41 41 39 38 39 36 34 34 31 27 24 23 24 25 26 26 25 26 26 24 23 23 24 24 24 24 24 24 24 24 23 23 23 23 22 20 19 19 19 19 19 18 18 17 15 13 12 12 12 11 11 11 11 12 13
43 39 33 31 29 26 23 21 20 19 18 15 14 17 24 29 30 30 36 42 48 54 54 54 55 54 54 51 46 42 42 43 41 39 40 39 37 39 36 32 31 29 26 26 26 27 28 27 25 24 25 25 23 23 23 23 24 23 23 23 23 23 23 23 23 23 22 20 19 18 18 18 18 17 17 16 16 15 13 13 13 13 12 11 11 11 13 13
40 38 31 27 26 22 20 19 17 17 17 15 12 13 18 27 31 30 32 38 44 45 40 40 47 51 54 52 46 42 43 46 44 41 40 39 38 38 35 31 29 28 28 30 31 30 30 29 28 27 27 26 25 23 23 23 23 23 23 22 23 23 23 23 23 22 21 19 18 18 18 17 17 17 16 16 16 15 14 13 13 13 13 12 11 12 12 13
36 36 30 24 22 19 17 16 15 14 15 14 12 11 14 23 31 32 32 34 35 31 29 28 32 44 54 54 46 42 44 45 44 43 42 40 39 37 36 33 29 28 29 31 31 31 31 30 29 29 28 27 25 23 23 23 23 23 23 23 23 23 23 23 22 22 20 18 17 17 17 17 18 17 17 17 17 16 15 14 13 13 13 13 13 12 12 12
32 34 29 22 19 17 15 14 13 12 13 13 12 11 11 17 26 32 33 32 29 26 26 24 25 37 50 52 47 41 42 42 39 42 43 41 39 35 35 34 29 28 30 31 32 32 33 32 31 30 28 27 25 24 24 23 23 23 23 23 23 22 22 21 21 21 20 19 18 17 17 18 19 18 17 17 17 16 15 15 14 14 14 14 13 13 12 12
29 32 29 22 17 14 13 12 11 10 11 11 11 11 11 14 19 27 31 29 26 26 26 26 27 33 40 45 44 38 39 40 37 38 40 39 36 32 32 32 30 30 30 31 33 33 33 31 30 29 28 27 26 25 24 23 23 23 23 23 22 21 21 20 20 20 20 19 18 18 18 19 19 18 18 16 16 16 16 16 15 15 15 15 14 13 13 12
26 29 27 21 15 11 10 10 8 8 10 11 11 11 12 13 14 19 25 25 25 26 26 26 28 30 32 34 35 33 34 37 34 33 33 32 31 29 30 31 31 31 30 30 31 30 30 29 28 28 27 27 26 25 24 23 23 24 23 22 21 20 20 20 21 21 21 21 20 19 19 19 19 18 17 16 16 16 16 16 16 16 15 15 15 15 14 13
23 26 26 21 14 10 7 7 6 5 8 10 11 12 12 13 13 16 18 20 24 27 27 28 28 28 28 27 28 28 28 30 29 28 27 26 26 27 28 29 29 29 29 29 29 29 29 29 28 28 28 26 24 23 23 22 23 23 23 22 20 20 20 20 21 22 22 22 21 20 19 19 19 18 17 17 16 17 17 17 17 17 17 17 16 16 15 14
21 23 24 20 14 9 6 5 4 2 6 9 10 12 14 14 15 16 17 16 22 27 27 27 28 29 29 27 27 26 25 26 26 26 27 27 25 25 26 26 27 27 27 28 29 29 30 30 29 27 26 24 23 22 22 21 21 22 21 20 20 20 20 21 21 22 23 22 22 21 20 20 20 19 18 17 17 18 18 18 18 18 18 18 18 17 16 16
20 21 22 20 13 8 6 3 2 0 3 8 10 10 12 15 16 17 17 17 19 23 24 23 24 27 29 29 29 27 26 26 27 27 28 28 28 27 27 27 27 27 27 28 28 29 29 28 26 24 23 22 22 22 21 20 20 21 20 21 21 21 21 21 21 22 23 23 22 22 21 20 20 20 19 18 19 19 20 20 20 20 19 18 18 18 17 17
19 19 20 19 14 9 6 4 2 2 2 6 8 8 9 12 15 16 16 17 18 19 21 21 21 23 25 26 28 28 27 27 27 28 28 28 29 28 27 27 27 27 28 28 28 27 27 26 24 23 22 22 21 21 20 19 20 20 21 21 21 21 21 21 21 22 23 23 23 22 21 20 21 21 20 20 20 21 21 22 22 21 20 19 18 18 18 17
18 18 18 19 15 10 8 6 6 5 4 5 6 7 8 8 10 13 14 15 16 17 18 18 18 19 20 22 23 24 25 26 26 27 26 26 26 25 25 25 25 25 26 26 25 25 24 24 23 22 21 21 21 20 20 19 19 20 21 22 21 20 20 21 21 22 23 24 24 24 23 22 22 22 21 20 21 21 22 22 22 22 21 20 19 18 18 18
17 16 16 17 16 10 9 9 9 8 6 5 5 5 6 6 7 10 12 13 15 16 16 16 16 16 16 17 18 19 20 21 23 24 23 22 22 21 21 21 22 24 23 23 23 23 23 22 22 21 20 20 20 20 21 20 20 21 22 22 21 21 20 20 20 20 21 23 24 24 23 23 23 22 20 19 20 21 21 22 22 22 21 20 18 18 19 20
17 16 15 16 15 10 10 11 11 10 8 7 5 5 6 7 6 8 10 12 14 15 16 16 16 15 15 15 15 16 17 18 19 20 19 19 19 19 19 20 22 22 22 21 22 22 21 21 21 20 20 20 21 21 21 21 21 22 22 22 22 21 20 20 20 20 20 21 22 23 23 23 23 22 21 20 19 19 20 20 20 21 21 20 19 19 20 22
16 15 13 14 14 10 9 12 13 12 10 8 6 6 8 8 7 8 10 13 14 15 16 17 17 16 15 15 16 17 17 17 17 16 16 16 17 18 19 20 21 21 21 21 22 21 20 20 21 20 20 20 21 21 21 21 21 21 21 22 23 23 22 21 20 20 20 20 21 22 22 22 23 22 22 21 21 20 20 20 21 21 22 22 21 21 21 22
16 14 13 12 12 11 8 12 14 14 13 11 10 10 9 9 9 10 11 13 15 15 16 17 17 17 17 17 17 17 17 16 16 16 17 17 18 19 20 20 21 21 22 22 21 21 21 21 21 21 20 21 21 21 21 21 21 21 21 22 23 24 24 24 23 22 21 21 21 21 22 22 22 22 23 23 23 22 22 22 23 23 23 23 23 22 21 21
17 14 12 10 10 9 7 12 15 16 17 15 13 13 12 12 13 13 13 14 15 16 16 17 18 19 19 19 18 17 17 17 17 17 18 18 20 20 19 20 21 22 21 21 21 21 21 21 22 21 21 21 21 21 21 19 19 20 22 23 24 26 27 27 26 25 24 23 23 24 24 24 24 25 25 26 26 25 25 25 26 26 25 25 24 22 21 21
19 15 12 9 8 7 6 12 17 19 19 18 16 16 15 15 16 15 15 15 17 17 18 19 19 19 20 19 17 17 18 17 16 17 17 19 19 19 18 20 21 21 20 21 22 22 22 22 22 21 21 21 21 21 20 19 19 20 21 23 24 26 28 29 29 28 27 26 26 27 27 27 28 29 28 28 28 28 29 29 29 29 28 28 26 24 23 22
20 16 13 10 7 6 6 11 17 20 20 20 18 18 18 18 17 17 17 17 19 19 20 21 21 20 20 18 17 18 18 16 14 15 18 19 18 18 18 19 19 19 19 20 21 22 22 22 21 21 21 22 21 21 20 20 20 20 21 22 23 25 28 30 31 31 30 29 28 28 28 28 29 30 30 30 30 31 32 32 32 32 31 31 29 26 24 24
22 17 14 11 8 6 6 8 14 19 21 21 21 20 20 20 19 18 18 19 20 20 21 22 22 22 21 19 18 19 18 16 15 16 18 18 17 18 19 20 19 19 19 19 20 21 22 22 22 23 24 24 23 22 22 21 21 20 21 21 22 24 25 27 29 30 29 29 28 28 28 28 29 30 30 31 32 33 34 35 35 35 34 33 31 29 26 25
23 19 16 12 9 7 6 6 11 17 22 23 23 22 22 22 21 20 20 21 22 22 22 23 22 22 21 20 19 18 16 15 15 15 16 16 15 16 19 20 19 19 19 19 20 22 23 23 23 23 24 24 24 24 23 23 23 22 22 22 23 24 24 24 25 26 26 26 25 25 26 27 28 29 30 31 32 33 35 37 36 36 35 33 31 29 26 25
25 21 18 14 10 9 7 5 8 15 22 25 25 25 24 24 23 23 22 23 23 24 24 24 23 22 22 21 20 19 17 15 14 13 13 13 12 13 16 17 17 17 18 19 20 22 23 23 22 22 23 24 24 24 24 25 24 24 24 24 25 24 24 24 24 24 24 24 24 25 26 27 28 29 31 32 32 33 34 36 35 33 32 30 28 26 24 22
26 23 19 15 11 10 9 7 6 12 21 26 27 28 27 26 26 26 26 25 25 25 26 25 24 23 23 22 21 20 18 16 13 11 10 10 10 11 13 15 15 15 16 17 18 19 20 20 20 21 21 22 22 22 23 25 25 25 25 25 25 26 25 25 24 23 23 24 25 26 27 28 28 30 31 32 32 32 32 32 32 30 28 26 24 22 21 20
27 25 22 17 13 11 11 9 7 9 18 25 29 30 30 29 29 29 28 27 26 26 27 26 26 25 24 24 22 20 19 17 15 13 11 9 9 10 12 15 15 16 16 16 16 16 17 18 19 19 18 17 17 18 20 22 24 24 24 25 26 26 26 26 25 24 24 25 26 27 28 28 28 28 29 29 30 29 28 28 28 26 25 23 20 19 19 19
28 27 23 19 14 13 13 11 9 9 14 22 28 31 32 31 31 31 30 29 28 28 27 27 27 27 26 25 24 23 21 19 16 15 13 12 11 12 13 14 15 16 16 15 15 15 15 15 16 16 15 13 13 14 16 18 19 21 23 24 26 26 26 26 26 26 27 28 28 28 29 28 27 27 27 27 27 27 27 26 25 24 23 21 19 18 18 18
30 29 25 21 17 15 15 14 12 11 13 18 25 30 31 31 32 33 32 31 30 29 28 28 28 28 28 27 26 25 23 21 18 16 15 15 16 15 15 15 16 16 14 13 12 11 11 12 12 12 11 10 10 11 12 14 16 18 20 21 23 24 25 26 27 28 29 29 29 29 28 28 27 27 27 26 26 26 26 25 24 23 22 21 19 18 17 17
Wind_Direction
348 349 348 344 339 332 323 315 306 293 281 271 262 255 248 242 237 231 226 223 222 221 220 221 222 224 224 224 224 224 223 223 223 223 224 225 226 226 227 227 228 230 231 233 235 236 236 237 238 239 241 242 244 245 247 248 250 251 252 253 255 256 257 259 261 262 264 266 268 270 272 273 275 277 278 278 279 281 282 283 284 285 286 287 289 290 292 294
349 351 350 348 344 337 329 321 311 299 286 275 264 255 247 241 235 228 223 220 219 219 217 217 219 221 222 222 222 222 221 221 222 222 222 225 225 224 225 226 227 228 229 232 234 235 236 237 237 238 240 242 244 245 246 248 250 251 252 253 254 256 257 259 261 263 265 267 268 270 272 274 276 277 277 279 280 281 282 283 284 286 287 289 291 292 294 297
350 352 352 351 347 341 333 325 315 303 290 278 267 255 246 239 233 225 220 216 215 215 214 215 216 217 219 220 220 219 219 219 220 220 220 223 224 223 223 225 226 226 228 230 232 235 236 237 238 238 239 241 243 244 245 247 249 250 251 252 254 255 257 259 261 263 265 267 268 270 272 274 275 276 277 279 280 281 282 284 286 287 289 291 293 295 297 299
351 352 354 353 351 345 336 328 318 307 294 282 270 257 245 237 230 223 216 213 212 212 212 212 212 214 216 217 217 217 217 217 218 218 217 220 223 222 222 222 224 225 226 228 231 234 236 238 239 239 239 240 242 243 244 246 247 248 250 251 253 254 256 258 260 262 264 266 268 270 273 274 274 275 277 279 280 282 283 285 287 289 292 294 295 297 300 301
352 353 355 355 353 348 341 334 326 315 302 287 273 258 245 235 228 220 214 210 209 209 209 209 210 211 213 215 215 215 215 215 216 216 214 217 221 222 221 221 222 223 225 227 229 232 235 238 240 240 240 240 240 241 242 244 245 247 248 250 251 253 255 258 260 262 264 266 268 271 272 273 274 275 277 279 280 282 284 286 289 291 293 295 297 299 301 302
352 354 356 357 355 351 346 342 337 327 314 295 276 258 243 232 224 217 211 207 206 206 206 206 207 209 210 212 213 213 213 213 213 213 212 215 219 221 221 221 221 222 224 226 229 231 234 237 239 240 240 240 240 240 241 242 244 246 247 249 251 253 256 258 260 262 264 266 268 270 271 272 274 276 278 279 281 283 286 288 291 293 294 296 298 300 301 301
353 354 357 359 357 354 351 349 346 339 326 306 280 255 238 226 219 213 208 205 202 203 203 203 204 206 208 209 211 211 211 211 210 211 210 212 217 219 220 220 220 221 223 225 228 231 233 235 237 239 240 240 240 239 240 241 243 245 246 249 251 254 256 258 260 261 263 266 268 269 271 273 275 277 279 281 283 285 288 290 292 293 295 296 299 301 301 300
355 355 357 359 358 356 355 355 353 347 336 319 287 251 229 217 211 207 204 202 200 200 200 201 202 203 205 206 208 209 209 208 207 208 207 208 213 217 218 218 219 220 222 224 227 229 231 234 236 238 239 239 239 239 240 241 243 245 246 249 252 254 256 258 259 261 264 266 268 269 271 274 276 278 280 282 284 286 289 291 292 294 295 297 299 300 299 299
356 356 357 358 358 357 358 358 357 353 345 333 298 243 217 206 202 200 198 198 196 196 197 198 199 201 202 204 205 206 205 205 205 205 205 205 210 215 216 216 217 217 220 222 225 228 229 232 235 237 239 239 238 239 240 242 243 245 247 249 251 253 255 257 259 262 264 266 268 270 272 274 277 279 281 283 285 287 289 291 293 294 296 298 298 298 298 299
357 357 356 357 357 358 360 1 3 1 355 351 334 211 194 192 191 192 192 192 192 192 193 194 197 198 200 201 201 201 202 202 202 203 203 203 207 213 215 215 215 215 217 219 221 225 226 227 231 235 238 239 238 239 241 242 244 246 247 249 251 253 255 257 260 262 264 266 268 271 273 275 278 280 282 284 286 288 290 291 293 294 296 297 296 297 298 299
358 358 357 356 357 359 1 4 9 11 9 16 44 123 162 175 179 183 185 186 187 188 189 191 193 195 197 197 196 198 199 199 199 200 200 201 205 210 213 213 213 213 214 216 217 220 222 223 227 232 237 240 240 240 242 243 245 247 248 250 252 254 256 258 260 263 265 267 270 272 274 276 278 281 283 285 287 288 290 291 293 294 294 295 295 296 298 299
358 359 357 356 356 359 3 8 16 23 25 33 57 97 134 156 166 172 177 180 181 183 186 188 190 191 192 192 193 195 196 196 196 197 198 199 203 207 211 212 212 213 214 215 216 218 220 222 226 231 236 239 241 241 242 244 245 247 249 250 253 255 257 259 261 263 266 268 270 272 275 277 279 281 283 285 287 288 290 291 292 292 293 293 295 296 297 298
358 360 359 357 356 359 6 13 22 32 36 43 60 89 119 140 153 161 167 171 175 179 181 183 185 186 187 188 190 192 192 192 192 194 195 196 199 205 209 210 212 214 215 216 217 219 221 224 227 231 236 240 242 243 244 245 246 248 250 252 254 256 258 260 262 264 267 269 271 273 275 277 279 281 283 284 286 287 288 289 289 290 291 293 294 295 296 296
358 360 359 359 358 360 9 19 28 38 45 51 65 87 113 132 144 153 158 163 168 172 175 178 179 181 182 184 187 189 189 188 189 191 193 194 197 203 208 210 211 212 215 217 218 221 224 227 229 233 237 241 243 244 245 246 247 249 250 253 255 257 258 260 263 265 267 270 271 273 275 277 279 281 282 283 284 285 285 286 287 289 290 292 294 295 295 297
358 360 360 360 0 2 12 23 31 41 50 56 66 85 105 123 136 145 152 157 162 166 170 172 175 177 179 181 184 185 185 184 185 188 191 194 197 201 205 208 210 211 213 216 220 223 226 229 232 234 237 240 242 244 245 247 248 250 251 253 255 257 259 261 263 265 268 270 272 274 276 278 279 280 281 281 281 282 283 284 286 288 290 292 293 293 295 297
358 0 0 0 0 3 13 26 34 42 51 60 68 82 97 113 126 135 143 150 155 159 164 167 170 173 176 179 181 182 182 182 184 186 190 193 196 199 203 207 209 212 214 216 220 224 226 229 232 234 237 239 242 244 246 248 249 250 252 254 256 258 260 262 264 266 269 271 273 274 276 277 277 278 278 278 279 280 281 283 285 288 290 291 291 292 294 298
357 360 1 1 1 4 12 22 35 43 49 59 69 80 94 106 116 126 134 141 147 153 159 163 166 170 173 176 177 178 179 180 183 186 189 192 195 197 199 203 206 209 214 216 218 221 224 228 231 234 237 240 242 244 246 248 250 251 253 255 257 259 261 263 265 267 269 271 272 274 274 274 275 275 275 276 277 278 279 282 285 288 289 289 291 294 297 300
357 359 1 2 3 8 13 17 29 42 49 58 69 77 90 103 112 121 129 137 142 147 153 159 163 166 169 173 174 175 176 178 180 183 186 190 194 196 196 199 201 203 210 214 217 221 224 228 231 233 236 239 241 244 246 248 250 252 254 256 258 260 262 264 265 267 268 270 271 271 271 271 272 272 273 274 275 276 278 281 284 286 287 288 291 295 299 302
356 358 1 2 3 8 13 14 22 38 51 60 70 78 88 103 113 119 126 135 140 143 148 154 158 161 163 168 172 173 174 175 176 178 183 187 192 195 194 193 197 201 204 209 215 219 223 226 229 232 235 238 240 243 245 248 250 252 254 256 258 260 262 263 264 265 266 267 267 267 268 269 269 270 271 272 273 275 277 281 282 283 284 284 288 295 300 305
356 358 0 1 3 6 9 12 17 33 54 64 73 81 88 100 114 121 126 133 138 140 143 146 152 155 157 160 164 168 170 171 173 176 181 185 189 193 193 190 193 198 199 204 209 211 217 221 225 230 234 238 240 243 245 247 249 251 254 255 257 258 260 261 262 262 263 263 263 263 264 265 265 267 268 269 271 273 276 278 279 279 277 276 283 295 301 303
356 357 359 1 2 4 8 12 15 29 55 69 74 82 91 98 108 120 128 133 136 138 140 142 146 150 150 152 156 159 161 165 169 173 177 183 188 191 194 194 191 189 191 201 207 209 215 221 226 231 235 238 240 242 244 246 249 251 253 254 255 256 258 259 259 258 258 259 259 260 260 260 262 263 265 266 269 271 273 274 275 274 271 273 284 295 299 299
356 356 359 0 1 4 9 14 17 29 54 70 75 84 93 99 104 110 121 130 134 136 137 138 141 143 144 145 148 151 154 159 164 169 174 180 186 189 192 192 187 186 191 200 206 210 217 222 225 230 233 236 238 241 243 246 248 250 251 252 253 254 255 255 255 255 256 256 256 256 256 257 258 260 262 264 267 269 271 271 271 269 270 276 285 291 294 295
355 356 358 360 1 4 9 17 22 32 54 70 78 85 91 98 104 107 114 125 131 132 133 134 135 136 138 140 143 146 149 155 159 165 172 177 183 187 190 189 187 192 197 203 208 212 217 218 217 220 227 233 237 240 244 247 249 249 249 251 251 252 252 252 252 253 254 254 254 254 253 253 255 258 262 265 267 268 269 270 269 268 271 275 280 285 291 298
355 355 357 359 0 3 10 21 28 36 53 70 80 87 93 98 103 109 116 123 127 128 129 130 130 131 132 133 135 137 140 145 150 159 168 173 179 182 188 191 193 198 203 208 212 213 212 211 210 216 224 232 237 242 247 247 246 247 248 249 249 249 249 249 250 250 250 249 249 249 250 252 255 259 263 266 266 265 266 268 267 267 269 272 278 286 295 305
354 355 356 358 359 2 11 24 33 40 54 73 84 92 98 100 105 112 118 123 125 126 126 126 127 127 127 129 131 134 140 145 152 162 167 169 177 183 188 194 198 202 206 208 210 208 205 205 209 217 224 232 239 244 246 244 244 245 245 245 245 246 246 246 245 245 244 244 244 245 247 251 255 259 263 263 261 261 263 264 264 265 268 274 283 290 299 311
354 353 355 358 359 1 10 25 37 45 56 70 83 95 100 102 109 116 121 126 127 127 127 127 127 129 131 135 139 143 150 156 161 166 169 172 181 185 186 193 196 198 201 202 205 206 206 209 216 223 230 237 242 243 243 243 244 243 242 242 242 242 242 240 239 239 239 239 241 244 248 253 257 259 260 258 257 257 257 258 259 260 267 279 286 293 302 312
353 352 353 356 359 1 9 25 40 48 54 60 76 93 100 104 110 120 127 130 131 131 131 132 135 139 141 143 145 149 156 162 165 169 172 178 187 186 185 192 194 192 193 196 203 208 210 215 223 230 237 241 242 242 242 242 242 242 242 241 241 240 239 237 235 235 235 235 239 244 250 254 257 258 257 255 255 252 250 253 256 257 266 278 286 296 305 310
352 352 351 354 359 1 7 23 41 51 56 57 68 88 101 106 110 122 131 134 137 137 136 141 147 148 146 145 148 154 160 163 166 174 179 183 191 190 188 194 197 196 197 198 202 208 212 216 222 229 235 238 240 241 241 241 241 241 240 239 239 238 237 235 234 233 232 233 237 243 248 251 252 251 250 250 250 248 249 254 257 259 266 274 283 296 303 305
351 352 350 351 357 1 5 17 36 53 61 64 67 81 101 112 116 124 132 137 141 141 139 147 154 152 149 149 151 156 162 163 166 175 182 186 193 195 193 197 203 204 202 202 204 210 214 217 222 226 231 236 239 239 239 241 242 241 239 237 236 235 235 234 233 233 233 234 239 245 247 245 243 243 244 246 246 247 250 254 256 260 265 273 282 292 297 298
349 351 348 348 353 359 3 11 30 51 65 71 76 84 101 117 121 124 130 137 142 140 136 144 157 157 154 154 156 159 164 166 167 173 180 186 192 197 196 197 204 205 204 206 209 213 218 222 225 229 233 237 238 237 239 241 240 239 237 235 234 233 233 233 233 235 236 238 242 244 242 239 237 238 242 245 248 249 251 252 254 261 269 276 282 288 291 294
346 349 348 345 349 356 359 6 25 51 69 77 87 95 107 120 124 127 129 132 136 134 132 137 155 163 161 161 162 162 166 169 172 177 182 188 192 197 197 194 196 201 205 210 214 218 223 227 231 234 237 239 240 242 241 239 236 236 236 234 232 231 231 232 234 237 239 241 243 239 236 236 237 238 242 246 249 250 251 252 257 265 274 278 280 283 288 291
343 348 347 342 343 353 357 360 21 53 71 81 93 102 116 124 129 137 135 133 138 136 132 135 145 158 165 167 168 169 173 177 179 183 187 190 191 193 195 194 196 202 208 213 217 222 228 232 235 236 239 241 245 246 240 235 234 234 233 232 231 231 232 235 237 241 242 242 239 234 232 235 239 242 245 247 249 250 253 256 262 268 272 275 278 282 286 291
338 345 346 340 335 345 357 358 12 59 77 84 97 104 119 126 129 140 137 139 149 146 141 144 146 154 164 172 175 177 181 183 185 190 194 195 194 194 197 200 204 209 214 218 222 227 232 235 238 240 243 246 246 243 237 234 233 231 230 229 229 232 236 240 243 244 245 242 236 230 231 235 238 241 243 245 248 252 256 260 264 267 269 273 279 284 289 294
333 341 344 339 329 332 352 2 7 61 91 94 104 107 116 124 127 137 138 142 153 152 151 155 154 157 164 173 182 184 186 189 192 196 201 202 203 203 204 207 209 212 217 221 225 228 231 236 241 245 247 245 241 238 235 233 231 229 228 229 231 236 240 244 246 245 244 240 234 229 229 232 234 235 238 244 250 255 258 261 264 267 271 276 280 285 289 295
326 336 342 339 326 317 329 360 12 61 111 109 111 111 117 126 134 145 147 147 154 155 158 159 158 163 168 172 180 186 190 195 196 199 203 204 204 206 208 210 212 214 216 220 224 228 232 237 241 242 241 239 237 236 234 233 232 231 231 233 236 240 243 246 246 245 242 236 231 228 227 230 233 235 238 245 252 256 259 260 261 265 270 275 278 283 287 293
319 328 339 338 324 302 300 325 3 13 143 131 123 120 129 136 140 149 154 154 159 163 166 166 167 171 175 176 180 184 188 193 196 199 201 202 203 205 207 210 213 218 222 226 229 231 234 237 237 234 232 232 233 233 232 233 236 237 238 240 242 244 246 246 243 241 237 231 229 229 229 233 238 242 245 249 254 258 260 260 260 262 267 273 276 279 284 290
310 320 333 338 327 295 273 266 254 249 209 164 147 141 146 148 146 149 153 157 162 167 170 172 174 178 183 187 188 191 194 197 201 204 206 207 209 212 215 217 221 225 228 229 230 230 230 232 231 229 227 227 228 230 230 233 238 242 244 245 247 248 248 245 241 236 231 228 228 232 236 241 247 251 254 257 259 261 263 263 262 262 265 271 275 278 282 288
301 313 326 336 332 301 265 249 237 229 225 209 183 166 162 163 161 157 156 158 162 165 168 171 174 180 187 192 195 199 203 206 210 213 214 215 216 218 220 222 223 225 227 228 227 226 225 225 226 226 225 227 229 230 231 233 239 245 248 248 248 247 245 242 239 234 229 227 228 233 239 244 248 251 254 258 260 261 263 264 265 264 265 269 272 276 280 285
292 304 318 333 335 307 263 246 239 230 219 212 207 190 177 181 189 182 172 168 169 171 173 176 181 184 188 192 196 200 205 209 214 217 216 214 215 215 216 218 220 220 221 223 225 225 223 223 224 224 226 229 232 234 235 236 241 246 248 248 247 245 242 239 235 232 230 231 232 236 241 244 247 249 252 256 259 261 262 264 265 266 267 269 271 274 278 283
281 295 310 328 335 313 262 246 242 236 227 212 200 201 199 195 202 207 198 187 183 183 183 186 191 193 192 194 198 202 206 211 216 218 216 214 214 215 216 220 222 222 221 222 225 226 225 226 226 226 228 232 236 239 240 242 243 243 243 243 244 244 241 237 234 234 236 238 240 241 243 245 248 249 251 253 255 258 261 262 264 266 269 272 274 277 280 285
271 286 301 320 333 321 270 246 241 238 233 220 205 211 216 208 203 214 217 209 202 197 193 192 193 195 197 200 204 208 211 216 219 221 221 220 220 220 221 223 226 227 226 226 227 227 227 229 230 231 231 235 240 243 244 245 244 243 241 240 240 240 238 234 232 236 240 243 244 244 245 247 251 253 254 255 255 257 259 261 263 265 269 273 277 280 283 286
263 275 289 310 328 326 281 243 234 235 234 225 216 219 224 219 214 216 222 223 220 215 210 202 197 196 197 201 207 212 217 221 224 223 223 223 224 224 224 226 229 229 229 230 230 230 231 232 234 236 237 239 242 244 244 245 245 244 243 241 239 237 234 231 230 234 238 241 243 245 247 251 256 261 262 263 263 263 263 264 265 268 271 275 278 281 284 287
256 265 277 298 321 326 286 238 226 228 231 227 220 220 223 223 221 221 224 227 228 226 222 216 208 204 203 206 210 214 218 224 228 229 228 227 226 224 224 228 232 232 232 233 233 233 235 237 238 239 240 242 242 242 240 240 242 243 242 240 238 236 233 231 231 233 238 241 245 248 252 256 260 264 266 268 269 269 268 268 269 272 274 275 278 283 286 286
249 255 264 283 308 321 286 237 226 226 230 229 223 220 221 223 223 225 227 228 227 225 222 221 218 214 213 213 214 215 217 221 229 235 236 235 233 228 225 229 232 235 236 236 236 235 234 236 237 236 238 240 240 240 239 237 238 240 240 238 237 235 233 231 231 234 238 242 247 252 256 260 262 264 266 268 270 271 271 272 273 275 277 278 280 285 287 285
242 246 254 267 287 309 293 249 236 233 232 232 228 221 220 224 225 227 230 229 227 223 219 220 221 218 215 213 212 215 217 217 221 231 234 234 234 231 229 231 233 235 237 235 234 233 231 230 229 229 232 234 235 237 238 237 238 239 239 238 236 234 233 232 233 235 239 243 247 252 256 260 263 265 267 268 270 272 274 276 278 279 281 281 283 285 284 284
237 238 246 256 271 292 296 265 248 240 235 233 231 225 222 224 225 226 229 229 227 222 217 220 221 218 215 212 210 213 217 216 218 225 229 229 228 227 227 228 229 230 231 231 230 229 227 226 226 227 230 231 233 235 237 238 238 238 238 235 232 232 232 234 236 239 242 246 249 252 256 259 263 266 268 270 272 274 276 278 280 281 281 281 282 282 281 282
233 236 241 248 262 278 289 274 252 243 237 233 233 231 227 226 226 226 227 228 227 222 218 219 221 219 219 217 214 215 214 214 219 226 228 225 222 223 225 225 226 227 228 229 228 226 225 227 229 231 233 235 237 238 239 240 239 238 236 234 231 230 231 234 239 242 245 248 250 253 256 259 263 266 268 270 273 276 279 281 281 281 279 278 278 277 277 276
231 235 238 239 253 268 278 279 253 240 237 235 234 234 232 231 230 229 228 227 226 224 222 221 220 219 221 221 218 217 214 213 219 227 230 224 216 219 225 225 223 225 226 228 229 229 230 232 235 236 237 239 240 242 243 243 241 238 236 235 234 234 233 235 238 242 245 248 251 253 256 259 263 266 268 270 273 276 280 281 281 279 277 276 275 273 271 268
229 234 233 231 244 259 267 275 261 236 233 233 234 235 235 233 232 231 230 228 226 225 225 225 221 218 221 223 221 218 218 217 218 223 226 220 210 211 218 219 213 212 217 221 226 229 231 234 237 238 240 242 244 245 247 246 244 241 239 238 238 238 237 237 239 241 245 248 251 253 256 258 262 265 268 270 272 274 277 277 276 275 274 272 270 268 265 263
227 232 231 228 237 250 257 265 265 240 231 230 232 234 235 235 234 233 232 230 228 226 226 227 224 219 221 224 224 222 222 221 220 221 222 218 213 210 213 214 209 206 210 216 221 224 227 232 236 239 242 246 249 251 252 252 251 248 243 241 240 240 239 239 240 242 245 249 251 253 256 258 262 266 269 271 272 271 271 271 271 272 271 268 264 262 260 260
224 229 229 226 229 240 250 256 258 247 234 230 230 232 234 235 234 234 234 232 230 228 227 228 227 224 224 227 228 227 225 223 219 220 221 217 212 212 214 215 214 213 213 215 219 224 229 235 241 244 245 248 253 258 260 261 259 255 249 245 244 244 244 243 242 242 244 247 250 253 256 259 264 268 271 273 273 269 266 266 266 267 267 265 261 257 257 258
221 226 226 225 226 233 243 249 251 249 241 234 232 232 234 234 234 235 235 235 233 231 230 231 231 230 229 231 232 231 230 226 220 218 220 215 211 212 215 217 220 219 215 215 222 229 236 242 247 249 247 247 253 259 263 263 263 262 260 256 253 251 250 249 247 245 245 247 249 252 256 259 263 267 272 274 271 267 265 265 264 263 262 261 258 255 255 254
Height
10554 10545 10535 10527 10519 10511 10504 10499 10495 10491 10489 10489 10489 10491 10494 10498 10502 10508 10515 10521 10527 10533 10541 10548 10554 10561 10568 10576 10585 10594 10604 10613 10622 10632 10641 10645 10652 10668 10680 10684 10689 10696 10702 10707 10711 10716 10721 10723 10725 10729 10733 10738 10743 10750 10754 10756 10760 10764 10768 10769 10770 10771 10772 10772 10773 10775 10778 10781 10782 10783 10783 10784 10785 10785 10785 10784 10785 10785 10785 10784 10782 10780 10778 10776 10776 10775 10772 10771
10550 10540 10530 10521 10513 10505 10498 10493 10488 10484 10483 10482 10483 10484 10487 10491 10496 10502 10508 10514 10520 10527 10535 10542 10549 10555 10562 10570 10578 10588 10597 10606 10616 10625 10635 10641 10652 10666 10672 10677 10684 10691 10698 10703 10707 10710 10714 10716 10720 10724 10728 10735 10742 10747 10751 10754 10757 10760 10762 10764 10765 10766 10767 10768 10770 10773 10775 10778 10779 10779 10780 10781 10781 10780 10780 10780 10780 10781 10780 10779 10778 10776 10774 10772 10772 10770 10768 10766
10545 10536 10526 10516 10507 10499 10492 10487 10482 10479 10477 10476 10477 10478 10481 10485 10490 10496 10502 10508 10515 10521 10529 10536 10544 10551 10558 10565 10573 10583 10591 10601 10610 10617 10630 10640 10647 10656 10664 10671 10678 10687 10696 10700 10703 10706 10708 10712 10715 10719 10726 10734 10740 10744 10748 10751 10753 10755 10757 10759 10761 10762 10762 10764 10767 10770 10772 10774 10775 10776 10777 10778 10777 10776 10776 10776 10776 10776 10776 10775 10774 10772 10770 10768 10767 10765 10764 10762
10541 10532 10522 10512 10503 10495 10488 10482 10477 10474 10472 10471 10472 10474 10476 10480 10485 10491 10497 10503 10510 10516 10524 10532 10540 10547 10553 10561 10569 10577 10585 10594 10601 10612 10629 10637 10640 10649 10657 10666 10674 10683 10691 10696 10699 10701 10703 10707 10710 10716 10725 10733 10737 10741 10745 10747 10748 10749 10751 10754 10756 10757 10758 10761 10764 10767 10769 10770 10772 10773 10774 10774 10772 10772 10773 10773 10772 10772 10772 10771 10769 10768 10767 10764 10762 10761 10760 10757
10538 10528 10518 10509 10499 10491 10484 10478 10473 10470 10468 10468 10469 10470 10473 10476 10481 10487 10493 10499 10505 10512 10520 10528 10536 10543 10550 10558 10565 10573 10580 10588 10597 10612 10628 10631 10634 10644 10652 10661 10669 10678 10687 10692 10694 10696 10700 10703 10706 10713 10722 10728 10732 10737 10740 10740 10742 10744 10747 10749 10751 10752 10755 10758 10761 10764 10765 10767 10769 10770 10770 10769 10768 10768 10769 10769 10769 10768 10768 10767 10765 10764 10763 10760 10759 10758 10756 10753
10535 10525 10515 10506 10497 10488 10481 10475 10471 10468 10466 10466 10466 10468 10470 10473 10478 10484 10490 10496 10502 10509 10517 10525 10533 10540 10548 10555 10562 10569 10576 10585 10598 10612 10623 10627 10632 10641 10649 10659 10667 10675 10682 10687 10690 10694 10698 10698 10701 10709 10717 10722 10727 10731 10733 10735 10738 10740 10742 10744 10747 10749 10752 10756 10758 10760 10762 10764 10766 10766 10765 10764 10764 10764 10765 10765 10764 10764 10764 10763 10762 10760 10758 10757 10756 10754 10752 10748
10534 10522 10513 10504 10495 10487 10480 10474 10470 10467 10465 10464 10465 10466 10468 10471 10476 10481 10487 10494 10500 10507 10515 10523 10531 10538 10545 10552 10559 10566 10574 10585 10598 10608 10619 10626 10630 10637 10648 10657 10664 10670 10676 10682 10687 10690 10692 10692 10697 10706 10711 10716 10721 10725 10727 10730 10733 10735 10738 10741 10744 10747 10750 10753 10755 10757 10759 10761 10762 10762 10761 10760 10760 10760 10761 10761 10760 10760 10760 10759 10759 10756 10754 10754 10753 10751 10747 10744
10534 10521 10512 10503 10495 10487 10480 10474 10469 10466 10465 10464 10464 10465 10467 10470 10474 10480 10486 10492 10499 10506 10514 10522 10530 10537 10544 10551 10557 10565 10574 10584 10594 10604 10616 10624 10627 10633 10644 10653 10659 10666 10672 10679 10682 10683 10685 10688 10696 10702 10705 10709 10714 10719 10722 10725 10728 10732 10736 10739 10742 10745 10747 10749 10750 10753 10756 10758 10758 10757 10757 10757 10756 10756 10757 10757 10756 10757 10756 10755 10755 10752 10750 10750 10749 10747 10743 10740
10536 10523 10512 10503 10496 10488 10481 10475 10470 10467 10466 10465 10464 10465 10467 10470 10474 10480 10486 10492 10499 10506 10514 10521 10529 10536 10543 10549 10556 10564 10573 10581 10591 10602 10613 10621 10624 10628 10639 10648 10655 10662 10668 10673 10676 10678 10682 10688 10694 10697 10698 10702 10708 10714 10718 10721 10725 10729 10733 10737 10739 10741 10743 10745 10748 10750 10753 10754 10754 10754 10753 10753 10752 10752 10753 10753 10753 10753 10752 10752 10750 10748 10747 10746 10745 10742 10739 10737
10539 10527 10515 10505 10498 10490 10483 10477 10472 10469 10467 10466 10466 10467 10469 10472 10475 10480 10486 10492 10499 10506 10513 10521 10528 10535 10542 10549 10557 10565 10572 10580 10590 10601 10611 10619 10622 10626 10636 10645 10652 10658 10661 10667 10672 10675 10681 10687 10690 10691 10691 10696 10704 10711 10714 10718 10723 10726 10730 10734 10735 10737 10740 10742 10745 10747 10749 10749 10749 10750 10750 10749 10749 10749 10749 10749 10749 10749 10748 10748 10746 10744 10743 10742 10741 10738 10735 10732
10543 10531 10520 10509 10501 10494 10487 10481 10476 10472 10470 10469 10468 10469 10471 10474 10478 10482 10488 10493 10500 10507 10514 10521 10528 10535 10542 10551 10559 10566 10572 10580 10589 10599 10608 10615 10620 10626 10634 10641 10647 10652 10655 10661 10668 10670 10677 10683 10684 10685 10687 10692 10701 10708 10712 10716 10720 10723 10727 10730 10732 10734 10737 10739 10742 10744 10745 10745 10745 10746 10746 10746 10745 10745 10745 10745 10745 10745 10744 10743 10742 10741 10739 10738 10736 10734 10732 10729
10546 10536 10526 10515 10506 10499 10492 10486 10481 10477 10475 10473 10472 10473 10474 10477 10481 10485 10491 10497 10503 10509 10515 10522 10529 10537 10546 10554 10561 10566 10572 10579 10588 10596 10605 10613 10620 10624 10628 10634 10640 10645 10650 10658 10663 10667 10672 10677 10679 10683 10685 10690 10698 10704 10709 10713 10717 10720 10723 10726 10728 10731 10733 10736 10738 10740 10741 10741 10741 10742 10743 10742 10742 10742 10742 10742 10741 10741 10740 10739 10738 10737 10735 10733 10732 10731 10729 10726
10550 10541 10532 10522 10513 10505 10498 10491 10486 10482 10480 10479 10478 10478 10479 10481 10484 10488 10493 10499 10505 10511 10518 10525 10532 10540 10548 10554 10560 10565 10571 10577 10585 10594 10602 10610 10616 10618 10622 10630 10637 10643 10650 10657 10661 10664 10668 10674 10678 10681 10684 10689 10694 10700 10705 10710 10713 10717 10720 10722 10725 10727 10730 10732 10735 10736 10737 10737 10738 10739 10739 10739 10739 10739 10739 10739 10738 10737 10737 10735 10734 10733 10731 10729 10729 10728 10726 10724
10554 10546 10538 10529 10520 10512 10504 10498 10492 10488 10486 10485 10484 10484 10484 10485 10488 10491 10495 10500 10506 10513 10519 10526 10534 10541 10547 10553 10558 10563 10569 10576 10584 10591 10598 10604 10609 10614 10621 10630 10637 10644 10650 10656 10658 10661 10666 10673 10677 10680 10683 10687 10691 10696 10701 10706 10710 10713 10716 10719 10721 10723 10726 10729 10731 10733 10733 10733 10734 10736 10736 10736 10735 10735 10736 10735 10734 10734 10733 10732 10730 10729 10728 10726 10726 10725 10724 10722
10559 10551 10542 10534 10526 10518 10511 10505 10500 10495 10493 10492 10491 10490 10490 10491 10493 10496 10499 10503 10509 10515 10521 10528 10535 10541 10547 10552 10557 10562 10569 10575 10582 10589 10595 10602 10607 10613 10620 10629 10637 10644 10649 10653 10656 10661 10668 10673 10675 10678 10681 10685 10688 10693 10698 10702 10706 10710 10713 10716 10718 10720 10723 10726 10728 10730 10729 10729 10731 10732 10732 10732 10732 10732 10732 10731 10731 10731 10729 10728 10727 10726 10725 10724 10723 10722 10721 10720
10563 10556 10548 10539 10532 10525 10518 10512 10507 10503 10500 10499 10498 10497 10497 10498 10499 10502 10505 10509 10514 10519 10525 10531 10537 10543 10548 10552 10557 10563 10569 10574 10580 10586 10593 10600 10606 10612 10621 10630 10638 10644 10648 10652 10657 10663 10667 10670 10673 10676 10679 10683 10687 10691 10695 10699 10703 10706 10709 10712 10714 10717 10720 10722 10725 10726 10726 10726 10728 10729 10729 10728 10728 10728 10727 10727 10727 10727 10726 10724 10723 10723 10722 10721 10720 10719 10719 10718
10567 10560 10553 10546 10537 10529 10522 10518 10514 10511 10508 10506 10504 10504 10504 10504 10506 10508 10511 10514 10518 10523 10528 10533 10538 10543 10548 10553 10558 10563 10569 10574 10580 10587 10594 10601 10607 10614 10623 10631 10639 10644 10647 10651 10656 10660 10663 10667 10671 10675 10678 10682 10686 10690 10693 10697 10700 10703 10706 10709 10711 10714 10717 10719 10722 10723 10723 10723 10724 10725 10725 10724 10724 10724 10723 10723 10724 10723 10722 10721 10721 10720 10719 10718 10717 10717 10716 10716
10570 10564 10558 10552 10544 10535 10528 10523 10520 10518 10516 10514 10512 10511 10510 10510 10511 10513 10515 10518 10522 10526 10531 10536 10540 10546 10551 10555 10559 10563 10569 10575 10582 10590 10597 10604 10609 10615 10622 10630 10637 10641 10644 10649 10654 10657 10662 10666 10669 10673 10676 10680 10684 10687 10691 10694 10697 10700 10703 10706 10708 10711 10714 10716 10718 10719 10719 10720 10720 10720 10721 10720 10720 10720 10720 10720 10720 10720 10719 10719 10718 10718 10717 10716 10715 10714 10714 10713
10575 10569 10563 10557 10551 10544 10539 10533 10529 10526 10523 10521 10519 10518 10517 10517 10517 10519 10521 10523 10526 10530 10535 10539 10544 10549 10554 10559 10563 10567 10572 10578 10585 10592 10598 10604 10610 10616 10622 10629 10634 10638 10643 10648 10652 10656 10660 10663 10667 10671 10674 10678 10682 10685 10688 10691 10694 10697 10701 10703 10706 10709 10711 10713 10715 10715 10715 10716 10716 10717 10717 10716 10716 10716 10716 10716 10716 10716 10716 10716 10716 10716 10715 10714 10713 10713 10712 10711
10580 10574 10568 10562 10557 10552 10547 10542 10538 10534 10531 10528 10526 10525 10524 10524 10523 10524 10527 10529 10532 10535 10539 10544 10549 10553 10556 10562 10566 10571 10577 10583 10588 10594 10600 10606 10611 10617 10622 10627 10632 10638 10643 10647 10651 10655 10658 10661 10665 10669 10673 10677 10680 10683 10686 10689 10692 10695 10699 10701 10703 10705 10707 10709 10711 10711 10711 10712 10712 10713 10713 10713 10712 10712 10712 10712 10713 10713 10714 10714 10714 10714 10713 10713 10712 10711 10710 10709
10584 10579 10573 10568 10563 10558 10553 10548 10544 10540 10537 10535 10532 10531 10531 10530 10531 10531 10532 10534 10537 10539 10542 10547 10552 10555 10559 10564 10569 10575 10581 10588 10593 10599 10605 10610 10614 10619 10623 10628 10633 10639 10643 10646 10650 10654 10657 10661 10665 10669 10672 10675 10677 10680 10683 10687 10690 10694 10696 10698 10700 10702 10704 10705 10706 10706 10706 10707 10708 10709 10709 10709 10709 10709 10709 10709 10710 10710 10711 10712 10712 10712 10711 10711 10711 10710 10709 10708
10589 10583 10578 10574 10569 10564 10558 10554 10550 10546 10543 10540 10538 10537 10537 10537 10537 10538 10539 10540 10542 10544 10546 10550 10554 10558 10563 10567 10573 10579 10585 10591 10597 10602 10608 10612 10617 10621 10625 10630 10635 10639 10642 10646 10649 10653 10657 10661 10664 10667 10670 10672 10676 10679 10681 10685 10689 10692 10693 10695 10697 10699 10700 10701 10702 10702 10702 10703 10704 10705 10705 10705 10705 10705 10706 10706 10707 10708 10708 10709 10709 10709 10709 10709 10709 10708 10708 10707
10593 10588 10583 10579 10574 10569 10564 10560 10556 10552 10549 10546 10545 10543 10543 10542 10542 10543 10544 10546 10548 10549 10551 10554 10558 10562 10567 10572 10577 10583 10589 10595 10601 10606 10611 10615 10619 10623 10627 10631 10635 10638 10641 10644 10647 10652 10656 10659 10662 10665 10668 10670 10674 10676 10680 10684 10686 10688 10690 10691 10693 10694 10696 10697 10697 10698 10699 10700 10701 10701 10702 10702 10703 10703 10703 10704 10705 10705 10706 10706 10707 10707 10707 10707 10707 10706 10706 10706
10597 10592 10588 10583 10579 10575 10570 10566 10562 10559 10555 10552 10551 10549 10549 10548 10548 10548 10549 10551 10553 10555 10558 10561 10564 10568 10572 10577 10583 10589 10595 10601 10606 10610 10614 10617 10621 10625 10628 10632 10635 10638 10641 10643 10646 10651 10655 10659 10662 10664 10667 10669 10672 10675 10678 10681 10683 10685 10686 10687 10689 10690 10692 10693 10693 10694 10696 10697 10698 10699 10699 10700 10701 10701 10701 10702 10702 10703 10703 10704 10704 10705 10705 10705 10705 10705 10705 10705
10601 10596 10592 10588 10584 10580 10576 10572 10568 10565 10562 10559 10557 10556 10554 10554 10554 10554 10555 10556 10558 10560 10563 10566 10570 10574 10578 10583 10588 10594 10600 10605 10610 10613 10616 10619 10623 10626 10629 10632 10635 10637 10639 10643 10647 10651 10655 10659 10661 10663 10665 10667 10670 10673 10676 10677 10679 10681 10682 10683 10685 10686 10688 10689 10690 10691 10692 10694 10695 10696 10697 10698 10699 10699 10700 10700 10700 10701 10701 10702 10702 10703 10703 10703 10703 10703 10703 10703
10604 10599 10596 10592 10588 10585 10581 10577 10574 10571 10569 10567 10564 10562 10560 10560 10560 10560 10561 10562 10563 10565 10568 10572 10576 10580 10584 10589 10593 10597 10603 10606 10610 10613 10617 10620 10622 10624 10627 10630 10632 10635 10639 10644 10648 10652 10655 10657 10659 10661 10663 10666 10669 10671 10673 10675 10676 10678 10679 10680 10681 10683 10684 10686 10687 10689 10690 10691 10693 10694 10695 10696 10697 10697 10698 10698 10699 10699 10700 10700 10701 10701 10701 10701 10701 10701 10701 10701
10606 10602 10598 10596 10593 10589 10586 10582 10579 10577 10575 10573 10571 10568 10567 10566 10567 10567 10567 10568 10569 10570 10572 10576 10580 10583 10586 10592 10596 10599 10603 10608 10611 10614 10617 10620 10621 10623 10626 10629 10632 10636 10641 10645 10649 10652 10654 10657 10659 10661 10663 10665 10668 10669 10671 10672 10674 10675 10676 10678 10679 10680 10682 10684 10685 10687 10688 10689 10691 10692 10693 10694 10695 10695 10696 10697 10697 10697 10698 10698 10699 10699 10699 10700 10700 10700 10700 10699
10609 10605 10601 10598 10596 10593 10590 10587 10584 10581 10580 10579 10577 10575 10573 10572 10573 10574 10574 10575 10575 10575 10578 10580 10581 10585 10589 10593 10598 10601 10603 10607 10613 10616 10618 10620 10622 10624 10627 10630 10634 10638 10642 10645 10648 10651 10654 10656 10658 10660 10662 10664 10665 10667 10668 10670 10671 10673 10674 10676 10677 10679 10680 10682 10683 10685 10686 10688 10689 10690 10691 10692 10692 10693 10694 10695 10695 10696 10696 10697 10697 10698 10698 10698 10698 10698 10698 10698
10610 10607 10604 10601 10599 10596 10594 10591 10588 10586 10584 10583 10582 10581 10579 10577 10578 10580 10581 10581 10581 10581 10583 10586 10586 10588 10592 10596 10600 10603 10605 10607 10611 10615 10618 10621 10623 10625 10629 10632 10635 10638 10641 10644 10647 10650 10653 10655 10657 10658 10660 10661 10663 10665 10666 10667 10669 10671 10673 10674 10675 10677 10679 10680 10682 10683 10684 10686 10687 10688 10689 10690 10690 10691 10692 10693 10694 10694 10695 10695 10696 10696 10697 10697 10697 10697 10697 10697
10612 10609 10605 10603 10601 10599 10597 10595 10592 10590 10588 10587 10586 10586 10585 10583 10582 10584 10586 10587 10588 10588 10589 10592 10593 10594 10595 10599 10602 10604 10608 10610 10612 10615 10618 10621 10624 10626 10630 10633 10635 10638 10641 10644 10647 10650 10652 10654 10656 10657 10659 10660 10661 10663 10665 10666 10668 10669 10671 10673 10674 10675 10677 10679 10680 10681 10682 10684 10685 10686 10687 10687 10688 10689 10690 10691 10692 10693 10693 10694 10694 10695 10695 10695 10695 10696 10696 10696
10613 10610 10607 10605 10603 10601 10600 10598 10596 10594 10592 10591 10590 10590 10589 10588 10588 10588 10590 10591 10593 10594 10594 10596 10598 10599 10600 10602 10605 10607 10610 10613 10614 10616 10617 10620 10624 10627 10631 10634 10638 10640 10642 10645 10647 10649 10651 10653 10655 10656 10658 10659 10660 10662 10663 10665 10666 10668 10670 10671 10673 10674 10675 10677 10678 10679 10681 10682 10683 10684 10685 10686 10687 10688 10689 10689 10690 10691 10692 10692 10693 10694 10694 10694 10694 10694 10694 10694
10613 10611 10608 10606 10605 10603 10602 10601 10599 10597 10596 10594 10594 10593 10593 10593 10593 10592 10593 10595 10597 10598 10599 10600 10601 10604 10606 10607 10608 10611 10613 10615 10617 10619 10619 10621 10625 10629 10633 10636 10639 10641 10643 10645 10647 10649 10650 10652 10654 10656 10657 10658 10659 10660 10662 10663 10665 10667 10668 10670 10671 10672 10674 10675 10676 10678 10679 10680 10681 10682 10683 10684 10685 10686 10687 10688 10688 10689 10690 10691 10692 10692 10693 10693 10693 10693 10693 10693
10613 10612 10609 10607 10606 10605 10604 10603 10602 10600 10599 10598 10597 10597 10596 10597 10597 10597 10597 10598 10600 10601 10602 10603 10605 10607 10610 10612 10613 10614 10616 10618 10621 10623 10624 10626 10629 10632 10635 10637 10639 10641 10644 10646 10647 10649 10650 10651 10653 10655 10656 10657 10658 10659 10660 10662 10664 10665 10667 10668 10670 10671 10672 10673 10674 10676 10677 10678 10679 10680 10681 10682 10683 10684 10685 10686 10687 10687 10688 10689 10689 10690 10691 10691 10691 10691 10691 10691
10613 10611 10609 10607 10606 10606 10605 10605 10604 10603 10602 10601 10600 10599 10599 10600 10601 10601 10602 10602 10603 10604 10606 10607 10609 10611 10613 10615 10616 10617 10619 10621 10623 10625 10627 10629 10631 10633 10635 10637 10639 10641 10643 10645 10646 10648 10649 10650 10652 10653 10654 10655 10656 10657 10659 10661 10662 10664 10665 10667 10668 10669 10670 10671 10672 10673 10674 10675 10676 10678 10679 10680 10681 10683 10683 10684 10685 10686 10686 10687 10687 10688 10689 10689 10689 10689 10689 10689
10612 10611 10609 10607 10606 10606 10606 10605 10605 10604 10604 10603 10603 10602 10602 10602 10603 10604 10604 10605 10606 10607 10608 10610 10611 10613 10615 10616 10618 10619 10621 10622 10624 10625 10627 10629 10631 10633 10635 10637 10639 10641 10642 10644 10645 10647 10648 10649 10650 10652 10653 10654 10655 10657 10658 10660 10661 10662 10664 10665 10666 10667 10668 10670 10670 10671 10672 10673 10674 10675 10677 10678 10679 10681 10682 10683 10683 10684 10685 10685 10686 10686 10686 10687 10687 10687 10687 10686
10611 10610 10608 10607 10606 10605 10605 10605 10605 10605 10605 10605 10605 10605 10605 10605 10605 10605 10606 10607 10608 10609 10610 10611 10613 10615 10616 10617 10618 10619 10621 10623 10624 10626 10627 10629 10631 10633 10635 10637 10639 10641 10642 10643 10645 10646 10647 10648 10649 10651 10652 10653 10654 10655 10657 10658 10659 10660 10662 10663 10664 10665 10667 10668 10668 10669 10670 10671 10672 10673 10675 10676 10677 10679 10680 10681 10682 10682 10683 10683 10684 10685 10685 10685 10685 10685 10684 10684
10609 10609 10607 10606 10605 10605 10604 10604 10604 10605 10605 10606 10606 10607 10607 10607 10607 10607 10607 10608 10609 10610 10611 10612 10613 10615 10616 10617 10618 10619 10621 10623 10624 10625 10627 10630 10631 10633 10636 10638 10639 10641 10641 10642 10643 10644 10645 10647 10648 10650 10651 10652 10653 10654 10656 10657 10658 10659 10660 10661 10663 10664 10665 10666 10666 10667 10668 10669 10670 10671 10673 10674 10676 10677 10678 10679 10680 10680 10680 10681 10682 10682 10683 10683 10683 10683 10682 10682
10608 10607 10606 10605 10604 10604 10604 10603 10603 10604 10605 10606 10607 10607 10608 10609 10609 10609 10609 10610 10610 10611 10612 10613 10614 10615 10616 10617 10619 10620 10622 10623 10624 10626 10627 10629 10631 10633 10635 10637 10638 10639 10639 10640 10641 10643 10644 10645 10646 10648 10649 10650 10651 10653 10654 10656 10657 10658 10658 10660 10661 10663 10663 10664 10665 10666 10667 10668 10669 10670 10671 10673 10674 10675 10675 10676 10677 10677 10678 10678 10679 10680 10681 10681 10681 10681 10680 10680
10606 10606 10605 10604 10603 10603 10603 10603 10602 10603 10604 10605 10606 10607 10608 10609 10610 10610 10610 10611 10611 10612 10613 10614 10615 10615 10616 10618 10620 10621 10622 10624 10625 10626 10628 10630 10631 10633 10634 10635 10636 10636 10637 10639 10640 10641 10643 10644 10645 10646 10648 10649 10650 10651 10653 10654 10656 10656 10657 10659 10660 10661 10662 10663 10664 10665 10665 10666 10667 10668 10669 10670 10671 10672 10673 10674 10674 10675 10675 10676 10676 10676 10678 10678 10679 10679 10678 10678
10604 10604 10604 10603 10602 10602 10601 10601 10601 10602 10603 10604 10606 10607 10607 10608 10609 10610 10611 10612 10612 10612 10613 10614 10615 10616 10617 10619 10620 10621 10622 10624 10625 10626 10628 10630 10631 10632 10633 10633 10634 10635 10637 10638 10639 10640 10642 10643 10644 10645 10646 10647 10648 10649 10651 10653 10654 10655 10656 10657 10658 10659 10661 10662 10663 10663 10664 10665 10665 10666 10667 10667 10668 10669 10670 10671 10672 10672 10672 10673 10673 10673 10674 10675 10676 10676 10676 10676
10602 10602 10602 10602 10601 10600 10600 10600 10600 10600 10601 10603 10605 10605 10606 10607 10608 10610 10611 10611 10612 10613 10613 10614 10615 10616 10618 10619 10620 10621 10622 10623 10624 10626 10628 10629 10630 10630 10631 10632 10633 10634 10636 10637 10638 10639 10641 10642 10643 10644 10645 10646 10647 10648 10650 10651 10652 10653 10654 10655 10656 10658 10659 10660 10661 10662 10663 10663 10663 10664 10664 10664 10665 10666 10667 10668 10669 10670 10670 10670 10671 10671 10671 10672 10673 10674 10674 10673
10600 10600 10600 10600 10600 10599 10599 10599 10599 10599 10599 10601 10603 10604 10605 10607 10608 10609 10610 10611 10611 10612 10613 10614 10615 10616 10617 10617 10618 10619 10620 10622 10623 10625 10626 10627 10628 10628 10630 10631 10632 10633 10634 10635 10636 10638 10639 10641 10642 10643 10644 10645 10646 10647 10648 10649 10651 10652 10653 10654 10654 10656 10657 10658 10659 10660 10661 10661 10662 10662 10661 10662 10662 10663 10663 10664 10665 10666 10667 10668 10668 10669 10669 10670 10670 10671 10671 10671
10597 10597 10598 10598 10598 10597 10597 10597 10597 10597 10597 10599 10601 10602 10604 10605 10606 10607 10608 10609 10610 10611 10612 10613 10614 10614 10615 10616 10617 10618 10619 10620 10621 10622 10624 10625 10625 10626 10628 10629 10630 10631 10632 10634 10635 10636 10638 10639 10640 10641 10642 10643 10644 10645 10646 10648 10649 10650 10651 10652 10653 10654 10655 10656 10657 10658 10659 10659 10660 10659 10659 10660 10660 10660 10660 10660 10661 10662 10663 10664 10665 10666 10666 10667 10668 10668 10668 10668
10594 10595 10595 10596 10596 10596 10596 10595 10595 10595 10595 10596 10599 10601 10602 10603 10605 10606 10607 10608 10609 10610 10611 10612 10613 10613 10614 10615 10616 10617 10617 10618 10619 10620 10621 10622 10623 10624 10626 10627 10627 10629 10631 10632 10633 10634 10635 10636 10637 10639 10639 10640 10641 10643 10645 10646 10648 10648 10649 10650 10651 10651 10652 10654 10655 10656 10656 10657 10657 10657 10657 10657 10657 10657 10657 10658 10658 10658 10659 10660 10661 10662 10663 10664 10664 10665 10665 10664
10591 10592 10593 10594 10594 10594 10594 10593 10593 10593 10593 10595 10597 10599 10601 10602 10603 10605 10606 10606 10607 10609 10610 10611 10612 10613 10613 10614 10615 10616 10617 10617 10617 10618 10618 10619 10621 10622 10623 10624 10625 10627 10629 10630 10631 10632 10633 10633 10635 10636 10637 10637 10639 10640 10642 10644 10645 10647 10647 10648 10649 10649 10650 10651 10652 10653 10653 10654 10654 10655 10655 10654 10653 10654 10655 10655 10655 10655 10655 10655 10657 10658 10659 10659 10660 10661 10661 10661
10589 10590 10590 10591 10592 10592 10592 10592 10591 10591 10592 10593 10595 10597 10599 10600 10601 10603 10604 10605 10606 10608 10609 10610 10611 10612 10612 10613 10614 10615 10616 10616 10616 10616 10616 10617 10619 10620 10621 10622 10623 10625 10627 10628 10629 10630 10631 10632 10633 10634 10635 10635 10636 10637 10639 10641 10643 10644 10645 10646 10647 10647 10648 10649 10650 10651 10651 10652 10652 10653 10652 10652 10651 10651 10652 10652 10652 10652 10651 10652 10653 10654 10654 10655 10656 10657 10657 10657
10586 10587 10588 10589 10590 10590 10590 10590 10590 10590 10590 10591 10593 10595 10596 10598 10599 10601 10602 10603 10605 10606 10608 10609 10610 10611 10611 10612 10613 10614 10615 10615 10615 10615 10616 10616 10617 10618 10619 10620 10622 10623 10625 10626 10628 10629 10630 10630 10631 10632 10634 10634 10635 10636 10637 10638 10640 10641 10643 10643 10644 10645 10646 10648 10648 10649 10649 10650 10650 10650 10649 10649 10648 10649 10649 10649 10648 10648 10648 10648 10648 10649 10650 10651 10652 10653 10653 10653
10583 10584 10586 10587 10587 10588 10588 10588 10588 10588 10588 10589 10590 10592 10593 10595 10597 10598 10600 10601 10603 10605 10606 10607 10609 10610 10610 10611 10612 10613 10614 10614 10615 10616 10616 10616 10616 10616 10618 10619 10620 10622 10623 10625 10626 10627 10628 10629 10630 10631 10632 10633 10633 10634 10635 10636 10637 10638 10639 10640 10641 10643 10644 10645 10646 10646 10647 10647 10647 10647 10646 10646 10646 10645 10645 10646 10646 10645 10644 10644 10644 10644 10645 10646 10647 10648 10649 10649
10580 10582 10583 10584 10585 10585 10586 10587 10587 10587 10586 10587 10588 10589 10590 10592 10594 10595 10597 10599 10601 10603 10605 10606 10607 10608 10609 10610 10612 10612 10613 10614 10615 10615 10616 10616 10616 10616 10617 10618 10619 10620 10622 10623 10625 10626 10627 10628 10628 10629 10630 10631 10632 10633 10633 10633 10634 10635 10637 10638 10639 10640 10641 10642 10643 10644 10644 10643 10643 10643 10643 10643 10643 10643 10643 10643 10643 10643 10642 10640 10640 10640 10641 10642 10643 10644 10645 10645
10577 10579 10581 10582 10582 10583 10584 10585 10585 10585 10584 10584 10585 10586 10587 10589 10590 10592 10594 10597 10599 10601 10603 10604 10605 10607 10608 10609 10610 10611 10612 10613 10614 10614 10615 10615 10615 10616 10616 10617 10618 10619 10620 10622 10623 10624 10625 10626 10626 10627 10629 10630 10631 10631 10631 10632 10632 10633 10634 10635 10636 10636 10638 10639 10640 10641 10641 10640 10640 10640 10639 10640 10640 10640 10640 10640 10640 10640 10639 10638 10638 10638 10638 10638 10639 10640 10641 10641
10574 10576 10578 10579 10580 10580 10581 10582 10583 10583 10582 10582 10582 10583 10584 10585 10587 10588 10591 10593 10596 10599 10600 10602 10603 10605 10606 10607 10608 10609 10610 10611 10612 10613 10614 10614 10615 10615 10616 10617 10618 10619 10620 10621 10622 10623 10624 10624 10625 10626 10627 10628 10629 10629 10630 10630 10630 10631 10631 10632 10633 10634 10635 10636 10636 10637 10637 10636 10637 10636 10636 10637 10637 10637 10637 10637 10636 10636 10636 10636 10635 10635 10635 10635 10636 10637 10638 10638
10571 10573 10575 10576 10577 10578 10578 10580 10580 10580 10580 10579 10579 10579 10580 10582 10584 10585 10587 10590 10593 10596 10598 10599 10601 10602 10604 10605 10606 10607 10608 10610 10611 10612 10613 10613 10614 10615 10616 10617 10617 10618 10619 10620 10621 10621 10622 10623 10624 10625 10625 10626 10626 10627 10627 10628 10628 10628 10629 10629 10630 10631 10632 10632 10633 10633 10633 10633 10633 10633 10633 10634 10634 10634 10634 10634 10633 10633 10633 10633 10633 10633 10632 10632 10633 10634 10635 10636